Regional Weather Roundup
Issued by NWS

Home | Current Version | Previous Version | Graphics & Text | Print | Product List | Glossary On
Versions: 1 2 3 4 5 6 7 8 9 10 11 12 13 14 15 16 17 18 19 20 21 22 23 24 25 26 27 28 29 30 31 32 33 34 35 36 37 38 39 40 41 42 43 44 45 46 47 48 49 50
000
ASUS43 KLSX 170207
RWRMO

WEATHER SUMMARY FOR MISSOURI
NATIONAL WEATHER SERVICE SPRINGFIELD MO
900 PM CDT MON OCT 16 2017

NOTE: "FAIR" INDICATES FEW OR NO CLOUDS BELOW 12,000 FEET WITH NO
       SIGNIFICANT WEATHER AND/OR OBSTRUCTIONS TO VISIBILITY.
       CURRENT SKY AND/OR WEATHER CONDITIONS ARE NOT AVAILABLE FOR
       CHILLICOTHE AND FARMINGTON.

MOZ001>031-035>038-043-044-053-054-170300-
...NORTHERN AND WESTERN MISSOURI...

CITY           SKY/WX    TMP DP  RH WIND       PRES   REMARKS
KANSAS CTY INT PTCLDY    49  42  77 S9        30.24R
KANSAS C DTWN  CLEAR     58  43  57 SW7       30.24R
LEE`S SUMMIT   CLEAR     57  42  57 S9        30.26S
ST JOSEPH      CLEAR     54  44  69 S6        30.21S
CHILLICOTHE      N/A     51  45  79 S3        30.25S
KIRKSVILLE     CLEAR     52  40  63 S7        30.25S

$$
MOZ066>068-077>081-088>096-101>105-170300-
...SOUTHWEST MISSOURI...

CITY           SKY/WX    TMP DP  RH WIND       PRES   REMARKS
SPRINGFIELD    CLEAR     51  41  68 CALM      30.30R
JOPLIN         CLEAR     50  46  86 CALM      30.30S
BRANSON        CLEAR     54  36  50 CALM      30.32R

$$
MOZ032>034-039>042-045>050-055>058-069>072-170300-
...CENTRAL MISSOURI...

CITY           SKY/WX    TMP DP  RH WIND       PRES   REMARKS
COLUMBIA       CLEAR     53  41  63 S7        30.28S
JEFFERSON CITY CLEAR     50  43  77 CALM      30.28S
ROLLA          CLEAR     49  40  71 SW3       30.30S
SEDALIA        CLEAR     51  44  77 S6        30.28F
WHITEMAN AFB   CLEAR     51  42  70 SW5       30.23S
WARRENSBURG    CLEAR     52  43  71 S6        30.26F
OSAGE BEACH    CLEAR     48  44  86 CALM      30.31R

$$
MOZ051-052-059>065-170300-
...EAST CENTRAL MISSOURI...

CITY           SKY/WX    TMP DP  RH WIND       PRES   REMARKS
ST LOUIS INTL  CLEAR     54  42  64 SW3       30.29S
SPIRIT OF STL  CLEAR     48  45  89 CALM      30.29R
ST CHARLES     CLEAR     48  46  93 CALM      30.29R

$$
MOZ072>076-082>087-097>100-106>115-170300-
...SOUTH CENTRAL AND SOUTHEAST MISSOURI...

CITY           SKY/WX    TMP DP  RH WIND       PRES   REMARKS
CAPE GIRARDEAU CLEAR     43  38  82 E5        30.32S
FARMINGTON     CLEAR     46  42  86 CALM      30.32S
POPLAR BLUFF   CLEAR     49  43  80 CALM      30.32R
WEST PLAINS    CLEAR     45  39  79 CALM      30.32S

$$



USA.gov is the U.S. government's official web portal to all federal, state and local government web resources and services.